• în Republica Moldova
  • Lista ţărilor
  • Pe 7 zile
  • Temperatura apei
  • Hartă satelitară
  • Meteo pe hartă
  • Widget-uri
  • user-avatar
    Intrare

    Meteo pe oră la Shaki

    Astăzi, 17 Ianuarie, Marţi

    Timp Temperatura Precipitaţii Vânt Presiune Umiditate
    00:00 +1°C° 0 mm 1 m/s 740 mmHg 79%
    01:00 +1°C° 0 mm 1 m/s 740 mmHg 80%
    02:00 0°C° 0 mm 1 m/s 740 mmHg 81%
    03:00 0°C° 0 mm 1 m/s 740 mmHg 82%
    04:00 0°C° 0 mm 1 m/s 740 mmHg 82%
    05:00 -1°C° 0 mm 0 m/s 740 mmHg 82%
    06:00 -1°C° 0 mm 0 m/s 740 mmHg 83%
    07:00 +1°C° 0 mm 0 m/s 740 mmHg 76%
    08:00 +2°C° 0 mm 0 m/s 740 mmHg 70%
    09:00 +5°C° 0 mm 1 m/s 741 mmHg 63%
    10:00 +7°C° 0 mm 1 m/s 740 mmHg 59%
    11:00 +8°C° 0 mm 1 m/s 740 mmHg 55%
    12:00 +9°C° 0 mm 1 m/s 740 mmHg 51%
    13:00 +9°C° 0 mm 1 m/s 739 mmHg 50%
    14:00 +9°C° 0 mm 1 m/s 739 mmHg 50%
    15:00 +9°C° 0 mm 1 m/s 739 mmHg 50%
    16:00 +7°C° 0 mm 1 m/s 739 mmHg 58%
    17:00 +4°C° 0 mm 0 m/s 739 mmHg 65%
    18:00 +1°C° 0 mm 0 m/s 739 mmHg 72%
    19:00 +1°C° 0 mm 0 m/s 739 mmHg 73%
    20:00 +2°C° 0 mm 1 m/s 740 mmHg 74%
    21:00 +1°C° 0 mm 1 m/s 740 mmHg 76%
    22:00 +1°C° 0 mm 1 m/s 740 mmHg 77%
    23:00 +1°C° 0 mm 1 m/s 740 mmHg 79%

    Mâine, 18 Ianuarie, Miercuri

    Timp Temperatura Precipitaţii Vânt Presiune Umiditate
    00:00 +1°C° 0 mm 1 m/s 740 mmHg 80%
    01:00 +1°C° 0 mm 1 m/s 740 mmHg 80%
    02:00 0°C° 0 mm 1 m/s 740 mmHg 81%
    03:00 0°C° 0 mm 1 m/s 740 mmHg 81%
    04:00 -1°C° 0 mm 0 m/s 740 mmHg 81%
    05:00 -1°C° 0 mm 0 m/s 740 mmHg 82%
    06:00 -1°C° 0 mm 0 m/s 740 mmHg 82%
    07:00 0°C° 0 mm 0 m/s 740 mmHg 77%
    08:00 +2°C° 0 mm 0 m/s 740 mmHg 72%
    09:00 +5°C° 0 mm 1 m/s 741 mmHg 67%
    10:00 +6°C° 0 mm 1 m/s 740 mmHg 64%
    11:00 +7°C° 0 mm 1 m/s 740 mmHg 61%
    12:00 +9°C° 0 mm 1 m/s 740 mmHg 58%
    13:00 +9°C° 0 mm 1 m/s 740 mmHg 59%
    14:00 +9°C° 0 mm 1 m/s 740 mmHg 61%
    15:00 +9°C° 0 mm 1 m/s 739 mmHg 63%
    16:00 +6°C° 0 mm 1 m/s 740 mmHg 71%
    17:00 +4°C° 0 mm 1 m/s 740 mmHg 79%
    18:00 +2°C° 0 mm 1 m/s 740 mmHg 87%
    19:00 +2°C° 0 mm 1 m/s 740 mmHg 88%
    20:00 +2°C° 0 mm 1 m/s 740 mmHg 89%
    21:00 +2°C° 0 mm 1 m/s 740 mmHg 90%
    22:00 +2°C° 0 mm 1 m/s 740 mmHg 91%
    23:00 +1°C° 0 mm 1 m/s 740 mmHg 92%

    Poimâine, 19 Ianuarie, Joi

    Timp Temperatura Precipitaţii Vânt Presiune Umiditate
    00:00 +1°C° 0 mm 1 m/s 740 mmHg 92%
    01:00 +1°C° 0 mm 1 m/s 740 mmHg 92%
    02:00 0°C° 0 mm 0 m/s 740 mmHg 93%
    03:00 0°C° 0 mm 0 m/s 740 mmHg 93%
    04:00 +1°C° 0 mm 1 m/s 740 mmHg 92%
    05:00 +1°C° 0 mm 1 m/s 740 mmHg 92%
    06:00 +1°C° 0 mm 1 m/s 740 mmHg 92%
    07:00 +2°C° 0 mm 1 m/s 740 mmHg 86%
    08:00 +4°C° 0 mm 1 m/s 741 mmHg 81%
    09:00 +5°C° 0 mm 1 m/s 741 mmHg 76%
    10:00 +6°C° 0 mm 1 m/s 741 mmHg 68%
    11:00 +7°C° 0 mm 2 m/s 740 mmHg 61%
    12:00 +8°C° 0 mm 2 m/s 740 mmHg 53%
    13:00 +8°C° 0 mm 2 m/s 740 mmHg 53%
    14:00 +8°C° 0 mm 2 m/s 740 mmHg 52%
    15:00 +8°C° 0 mm 2 m/s 740 mmHg 51%
    16:00 +6°C° 0 mm 2 m/s 740 mmHg 57%
    17:00 +5°C° 0 mm 1 m/s 740 mmHg 64%
    18:00 +3°C° 0 mm 1 m/s 740 mmHg 71%
    19:00 +2°C° 0 mm 1 m/s 741 mmHg 72%
    20:00 +1°C° 0 mm 0 m/s 741 mmHg 73%
    21:00 +1°C° 0 mm 0 m/s 741 mmHg 75%
    22:00 +2°C° 0 mm 1 m/s 742 mmHg 75%
    23:00 +2°C° 0 mm 1 m/s 742 mmHg 76%

    20 Ianuarie, Vineri

    Timp Temperatura Precipitaţii Vânt Presiune Umiditate
    00:00 +2°C° 0 mm 1 m/s 742 mmHg 76%
    01:00 +1°C° 0 mm 1 m/s 742 mmHg 78%
    02:00 +1°C° 0 mm 1 m/s 742 mmHg 80%
    03:00 +1°C° 0 mm 1 m/s 743 mmHg 82%
    04:00 0°C° 0 mm 1 m/s 743 mmHg 84%
    05:00 0°C° 0 mm 1 m/s 743 mmHg 86%
    06:00 0°C° 0 mm 1 m/s 743 mmHg 89%
    07:00 +1°C° 0 mm 1 m/s 744 mmHg 85%
    08:00 +3°C° 0 mm 1 m/s 744 mmHg 82%
    09:00 +4°C° 0 mm 1 m/s 745 mmHg 79%
    10:00 +4°C° 0 mm 2 m/s 744 mmHg 75%
    11:00 +4°C° 0 mm 2 m/s 744 mmHg 72%
    12:00 +5°C° 0 mm 2 m/s 744 mmHg 69%
    13:00 +5°C° 0 mm 2 m/s 744 mmHg 68%
    14:00 +5°C° 0 mm 2 m/s 743 mmHg 68%
    15:00 +6°C° 0 mm 1 m/s 743 mmHg 68%
    16:00 +5°C° 0 mm 1 m/s 743 mmHg 74%
    17:00 +3°C° 0 mm 1 m/s 743 mmHg 81%
    18:00 +2°C° 0 mm 1 m/s 744 mmHg 87%
    19:00 +2°C° 0 mm 1 m/s 744 mmHg 88%
    20:00 0°C° 0 mm 0 m/s 744 mmHg 89%
    21:00 0°C° 0 mm 0 m/s 744 mmHg 90%
    22:00 0°C° 0 mm 0 m/s 744 mmHg 90%
    23:00 0°C° 0 mm 0 m/s 744 mmHg 90%

    21 Ianuarie, Sâmbătă

    Timp Temperatura Precipitaţii Vânt Presiune Umiditate
    00:00 -1°C° 0 mm 0 m/s 744 mmHg 90%
    01:00 -1°C° 0 mm 0 m/s 743 mmHg 90%
    02:00 0°C° 0 mm 1 m/s 743 mmHg 90%
    03:00 0°C° 0 mm 1 m/s 743 mmHg 90%
    04:00 0°C° 0 mm 1 m/s 743 mmHg 89%
    05:00 -1°C° 0 mm 1 m/s 743 mmHg 88%
    06:00 -1°C° 0 mm 1 m/s 742 mmHg 87%
    07:00 +1°C° 0 mm 1 m/s 743 mmHg 81%
    08:00 +2°C° 0 mm 1 m/s 743 mmHg 75%
    09:00 +4°C° 0 mm 1 m/s 743 mmHg 68%
    10:00 +5°C° 0 mm 1 m/s 742 mmHg 62%
    11:00 +5°C° 0 mm 2 m/s 742 mmHg 56%
    12:00 +6°C° 0 mm 2 m/s 742 mmHg 50%
    13:00 +6°C° 0 mm 2 m/s 742 mmHg 50%
    14:00 +6°C° 0 mm 2 m/s 741 mmHg 51%
    15:00 +6°C° 0 mm 2 m/s 741 mmHg 51%
    16:00 +5°C° 0 mm 1 m/s 741 mmHg 59%
    17:00 +3°C° 0 mm 1 m/s 741 mmHg 68%
    18:00 +1°C° 0 mm 1 m/s 742 mmHg 77%
    19:00 +1°C° 0 mm 1 m/s 742 mmHg 78%
    20:00 -1°C° 0 mm 0 m/s 742 mmHg 79%
    21:00 -1°C° 0 mm 0 m/s 742 mmHg 81%
    22:00 -1°C° 0 mm 0 m/s 743 mmHg 81%
    23:00 -1°C° 0 mm 0 m/s 743 mmHg 82%

    22 Ianuarie, Duminică

    Timp Temperatura Precipitaţii Vânt Presiune Umiditate
    00:00 -2°C° 0 mm 0 m/s 743 mmHg 83%
    01:00 -2°C° 0 mm 0 m/s 743 mmHg 83%
    02:00 -2°C° 0 mm 0 m/s 743 mmHg 83%
    03:00 -2°C° 0 mm 0 m/s 744 mmHg 82%
    04:00 -2°C° 0 mm 0 m/s 744 mmHg 82%
    05:00 -2°C° 0 mm 0 m/s 744 mmHg 82%
    06:00 -2°C° 0 mm 0 m/s 745 mmHg 82%
    07:00 -1°C° 0 mm 0 m/s 745 mmHg 75%
    08:00 +1°C° 0 mm 0 m/s 746 mmHg 68%
    09:00 +3°C° 0 mm 0 m/s 747 mmHg 61%
    10:00 +5°C° 0 mm 1 m/s 747 mmHg 58%
    11:00 +6°C° 0 mm 1 m/s 747 mmHg 56%
    12:00 +7°C° 0 mm 1 m/s 747 mmHg 53%
    13:00 +7°C° 0 mm 1 m/s 747 mmHg 54%
    14:00 +7°C° 0 mm 1 m/s 747 mmHg 55%
    15:00 +7°C° 0 mm 1 m/s 747 mmHg 56%
    16:00 +5°C° 0 mm 1 m/s 747 mmHg 64%
    17:00 +3°C° 0 mm 1 m/s 748 mmHg 73%
    18:00 +2°C° 0 mm 1 m/s 748 mmHg 81%
    19:00 +1°C° 0 mm 1 m/s 748 mmHg 82%
    20:00 +1°C° 0 mm 1 m/s 749 mmHg 84%
    21:00 +1°C° 0 mm 1 m/s 749 mmHg 85%
    22:00 +1°C° 0 mm 1 m/s 749 mmHg 87%
    23:00 +1°C° 0 mm 1 m/s 749 mmHg 89%
    Arată mai mult